BOH112 LFMD-LKPR

Flight info

Callsign BOH112
Flight time 1h 14m
Altitude 43000
Route BASIP DCT TZO DCT SOTOV DCT DOLUP DCT APRAQ
Aircraft C750/M-SBDE3FGHRWXY/S

Departure

Time 2026-05-04 08:50
Airport Cannes Mandelieu Airport (LFMD)

Arrival

Time 2026-05-04 10:04
Airport Václav Havel Airport Prague (LKPR)
Time Latitude Longitude Altitude Speed Heading
2026-05-04 08:40 43.54720 6.95355 14 ft 0 kts 173°
2026-05-04 08:46 43.54691 6.95300 14 ft 6 kts 273°
2026-05-04 08:46 43.54727 6.95268 14 ft 8 kts 352°
2026-05-04 08:46 43.54790 6.95256 14 ft 9 kts 352°
2026-05-04 08:46 43.54858 6.95244 14 ft 12 kts 352°
2026-05-04 08:47 43.54953 6.95226 14 ft 15 kts 352°
2026-05-04 08:47 43.55051 6.95209 14 ft 14 kts 353°
2026-05-04 08:47 43.55142 6.95194 14 ft 13 kts 353°
2026-05-04 08:47 43.55227 6.95179 14 ft 12 kts 352°
2026-05-04 08:48 43.55304 6.95165 14 ft 11 kts 352°
2026-05-04 08:48 43.55376 6.95152 14 ft 10 kts 352°
2026-05-04 08:48 43.55432 6.95123 14 ft 8 kts 298°
2026-05-04 08:48 43.55435 6.95048 14 ft 8 kts 260°
2026-05-04 08:49 43.55425 6.94982 14 ft 5 kts 244°
2026-05-04 08:50 43.52286 6.96461 1368 ft 174 kts 149°
2026-05-04 08:50 43.51069 6.97065 1832 ft 197 kts 157°
2026-05-04 08:51 43.49688 6.97695 2313 ft 218 kts 156°
2026-05-04 08:51 43.48228 6.98389 2363 ft 226 kts 155°
2026-05-04 08:51 43.46707 6.99126 2262 ft 240 kts 155°
2026-05-04 08:51 43.45263 7.00478 2335 ft 262 kts 134°
2026-05-04 08:52 43.43997 7.02175 3732 ft 247 kts 133°
2026-05-04 08:52 43.42783 7.03862 4884 ft 250 kts 133°
2026-05-04 08:52 43.41588 7.05618 5935 ft 252 kts 133°
2026-05-04 08:52 43.40724 7.07756 6703 ft 268 kts 105°
2026-05-04 08:53 43.40625 7.10328 7656 ft 274 kts 91°
2026-05-04 08:54 43.49879 7.27834 12150 ft 370 kts 52°
2026-05-04 08:55 43.51521 7.30646 12862 ft 374 kts 52°
2026-05-04 08:55 43.53158 7.33456 13583 ft 378 kts 52°
2026-05-04 08:55 43.54811 7.36304 14232 ft 382 kts 52°
2026-05-04 08:55 43.56456 7.39140 14816 ft 386 kts 52°
2026-05-04 08:57 43.68601 7.60144 19215 ft 414 kts 52°
2026-05-04 09:01 43.96430 8.02603 27026 ft 464 kts 32°
2026-05-04 09:01 43.99146 8.05055 27537 ft 467 kts 33°
2026-05-04 09:01 44.01873 8.07532 28054 ft 470 kts 33°
2026-05-04 09:01 44.04638 8.10018 28555 ft 474 kts 32°
2026-05-04 09:02 44.07425 8.12514 29073 ft 477 kts 32°
2026-05-04 09:02 44.10216 8.15032 29561 ft 481 kts 32°
2026-05-04 09:02 44.13029 8.17585 30076 ft 484 kts 32°
2026-05-04 09:02 44.15873 8.20160 30454 ft 489 kts 32°
2026-05-04 09:03 44.18734 8.22743 30869 ft 491 kts 32°
2026-05-04 09:03 44.21600 8.25338 31340 ft 493 kts 32°
2026-05-04 09:03 44.24474 8.27952 31910 ft 492 kts 32°
2026-05-04 09:03 44.27331 8.30552 32467 ft 491 kts 32°
2026-05-04 09:04 44.30156 8.33119 32997 ft 491 kts 31°
2026-05-04 09:04 44.33014 8.35719 33649 ft 489 kts 32°
2026-05-04 09:04 44.35848 8.38306 34339 ft 485 kts 32°
2026-05-04 09:04 44.38672 8.40887 34866 ft 485 kts 32°
2026-05-04 09:05 44.41499 8.43471 35370 ft 484 kts 32°
2026-05-04 09:05 44.44312 8.46043 35887 ft 484 kts 32°
2026-05-04 09:05 44.47127 8.48622 36398 ft 483 kts 31°
2026-05-04 09:05 44.49937 8.51201 36938 ft 482 kts 31°
2026-05-04 09:06 44.52741 8.53778 37478 ft 482 kts 31°
2026-05-04 09:07 44.72273 8.71799 40647 ft 479 kts 31°
2026-05-04 09:08 44.75053 8.74376 41067 ft 478 kts 31°
2026-05-04 09:08 44.77825 8.76949 41554 ft 476 kts 31°
2026-05-04 09:08 44.80587 8.79516 42004 ft 476 kts 31°
2026-05-04 09:08 44.83353 8.82088 42418 ft 476 kts 31°
2026-05-04 09:09 44.86113 8.84659 42839 ft 475 kts 31°
2026-05-04 09:09 44.88868 8.87228 43152 ft 478 kts 31°
2026-05-04 09:09 44.91677 8.89847 43130 ft 487 kts 31°
2026-05-04 09:10 44.97418 8.95218 43142 ft 503 kts 31°
2026-05-04 09:10 45.03349 9.00778 43154 ft 519 kts 31°
2026-05-04 09:11 45.09422 9.06489 43139 ft 526 kts 31°
2026-05-04 09:11 45.15456 9.12177 43138 ft 523 kts 31°
2026-05-04 09:12 45.21517 9.17901 43148 ft 524 kts 31°
2026-05-04 09:14 45.45718 9.40919 43209 ft 521 kts 32°
2026-05-04 09:14 45.51731 9.46676 43217 ft 521 kts 32°
2026-05-04 09:15 45.57648 9.52670 43215 ft 522 kts 38°
2026-05-04 09:15 45.63185 9.59391 43136 ft 522 kts 39°
2026-05-04 09:17 45.88173 9.89352 43132 ft 520 kts 39°
2026-05-04 09:18 45.93709 9.96029 43147 ft 519 kts 39°
2026-05-04 09:18 45.99246 10.02752 43138 ft 520 kts 39°
2026-05-04 09:19 46.04768 10.09462 43151 ft 520 kts 39°
2026-05-04 09:19 46.10298 10.16206 43152 ft 520 kts 39°
2026-05-04 09:20 46.15811 10.22945 43151 ft 519 kts 39°
2026-05-04 09:20 46.21319 10.29696 43172 ft 519 kts 39°
2026-05-04 09:21 46.26830 10.36470 43185 ft 521 kts 39°
2026-05-04 09:21 46.32346 10.43268 43190 ft 520 kts 39°
2026-05-04 09:22 46.37848 10.50069 43181 ft 519 kts 39°
2026-05-04 09:22 46.43344 10.56879 43182 ft 520 kts 39°
2026-05-04 09:23 46.48840 10.63710 43175 ft 521 kts 39°
2026-05-04 09:23 46.54358 10.70586 43180 ft 524 kts 39°
2026-05-04 09:25 46.76313 10.98136 43165 ft 519 kts 40°
2026-05-04 09:26 46.81820 11.05096 43147 ft 520 kts 40°
2026-05-04 09:26 46.87249 11.11975 43144 ft 520 kts 40°
2026-05-04 09:27 46.92722 11.18930 43124 ft 521 kts 40°
2026-05-04 09:27 46.98559 11.25136 43114 ft 518 kts 31°
2026-05-04 09:28 47.04657 11.30792 43108 ft 520 kts 32°
2026-05-04 09:28 47.10660 11.36682 43077 ft 518 kts 32°
2026-05-04 09:29 47.16721 11.42425 43022 ft 518 kts 32°
2026-05-04 09:29 47.22729 11.48279 43038 ft 519 kts 32°
2026-05-04 09:30 47.28779 11.54097 43028 ft 520 kts 32°
2026-05-04 09:30 47.34810 11.59967 43025 ft 519 kts 32°
2026-05-04 09:31 47.40840 11.65824 43032 ft 519 kts 32°
2026-05-04 09:31 47.46874 11.71714 43024 ft 521 kts 32°
2026-05-04 09:32 47.52920 11.77630 43022 ft 520 kts 32°
2026-05-04 09:34 47.76997 12.01350 43034 ft 521 kts 32°
2026-05-04 09:34 47.83029 12.07334 43030 ft 521 kts 32°
2026-05-04 09:35 47.89061 12.13337 43028 ft 521 kts 32°
2026-05-04 09:35 47.95081 12.19343 43030 ft 521 kts 33°
2026-05-04 09:37 48.19201 12.43585 43034 ft 523 kts 33°
2026-05-04 09:38 48.25231 12.49689 43030 ft 523 kts 33°
2026-05-04 09:38 48.31258 12.55807 43032 ft 523 kts 33°
2026-05-04 09:39 48.37283 12.61942 43030 ft 523 kts 33°
2026-05-04 09:39 48.43311 12.68097 43033 ft 524 kts 33°
2026-05-04 09:40 48.49340 12.74271 43037 ft 524 kts 33°
2026-05-04 09:40 48.55362 12.80457 43040 ft 524 kts 33°
2026-05-04 09:42 48.79319 13.05246 41669 ft 507 kts 33°
2026-05-04 09:43 48.82227 13.08276 41002 ft 496 kts 33°
2026-05-04 09:43 48.85039 13.11208 40357 ft 485 kts 33°
2026-05-04 09:43 48.87794 13.14084 39728 ft 476 kts 33°
2026-05-04 09:43 48.90497 13.16911 39112 ft 467 kts 33°
2026-05-04 09:44 48.93157 13.19696 38455 ft 462 kts 33°
2026-05-04 09:44 48.95786 13.22454 37850 ft 457 kts 33°
2026-05-04 09:44 48.98400 13.25198 37254 ft 457 kts 33°
2026-05-04 09:46 49.16026 13.45036 32748 ft 481 kts 40°
2026-05-04 09:46 49.18521 13.48439 31979 ft 481 kts 39°
2026-05-04 09:46 49.21039 13.51833 31224 ft 483 kts 39°
2026-05-04 09:47 49.23557 13.55250 30489 ft 486 kts 40°
2026-05-04 09:47 49.26041 13.58663 29709 ft 473 kts 40°
2026-05-04 09:49 49.41766 13.80238 24301 ft 415 kts 41°
2026-05-04 09:49 49.43913 13.83199 23609 ft 412 kts 41°
2026-05-04 09:49 49.46038 13.86135 22803 ft 409 kts 41°
2026-05-04 09:51 49.58356 14.03217 18335 ft 385 kts 41°
2026-05-04 09:51 49.60339 14.05976 17523 ft 381 kts 41°
2026-05-04 09:51 49.62300 14.08709 16742 ft 378 kts 41°
2026-05-04 09:51 49.64275 14.11282 15953 ft 374 kts 34°
2026-05-04 09:52 49.66642 14.12832 15117 ft 368 kts 13°
2026-05-04 09:52 49.69128 14.13652 14412 ft 362 kts
2026-05-04 09:52 49.71582 14.14428 13690 ft 358 kts 13°
2026-05-04 09:52 49.73759 14.16251 12781 ft 360 kts 40°
2026-05-04 09:53 49.75209 14.19339 11950 ft 353 kts 65°
2026-05-04 09:53 49.76051 14.22799 11483 ft 335 kts 73°
2026-05-04 09:53 49.76731 14.26155 10979 ft 322 kts 74°
2026-05-04 09:53 49.77372 14.29433 10379 ft 315 kts 75°
2026-05-04 09:54 49.77993 14.32646 9791 ft 309 kts 75°
2026-05-04 09:54 49.78597 14.35816 9128 ft 305 kts 75°
2026-05-04 09:54 49.79188 14.38947 8491 ft 301 kts 75°
2026-05-04 09:54 49.79759 14.42039 7876 ft 297 kts 75°
2026-05-04 09:55 49.80309 14.45070 7541 ft 286 kts 75°
2026-05-04 09:55 49.80840 14.48008 7281 ft 282 kts 75°
2026-05-04 09:55 49.81368 14.50937 7058 ft 282 kts 75°
2026-05-04 09:55 49.81894 14.53894 6787 ft 287 kts 75°
2026-05-04 09:56 49.82415 14.56869 6576 ft 285 kts 75°
2026-05-04 09:56 49.82924 14.59789 6409 ft 273 kts 75°
2026-05-04 09:56 49.83737 14.62347 6065 ft 265 kts 47°
2026-05-04 09:56 49.85274 14.63714 5736 ft 252 kts 10°
2026-05-04 09:57 49.86963 14.63796 5601 ft 234 kts 355°
2026-05-04 09:57 49.88535 14.63672 5495 ft 217 kts 354°
2026-05-04 09:57 49.90008 14.63571 5387 ft 209 kts 355°
2026-05-04 09:57 49.91458 14.63408 5252 ft 209 kts 345°
2026-05-04 09:58 49.92642 14.62149 5008 ft 211 kts 306°
2026-05-04 09:58 49.93464 14.60284 4896 ft 208 kts 304°
2026-05-04 09:58 49.94297 14.58569 4804 ft 192 kts 305°
2026-05-04 10:00 49.99524 14.47794 3972 ft 162 kts 307°
2026-05-04 10:00 50.00197 14.46419 3974 ft 160 kts 307°
2026-05-04 10:02 50.05169 14.36167 2543 ft 162 kts 308°
2026-05-04 10:04 50.09115 14.28017 1214 ft 123 kts 308°
2026-05-04 10:04 50.09522 14.27179 1203 ft 66 kts 307°
2026-05-04 10:04 50.09708 14.26796 1206 ft 30 kts 306°
2026-05-04 10:04 50.09823 14.26565 1203 ft 18 kts 329°
2026-05-04 10:05 50.09876 14.26642 1204 ft 10 kts 81°
2026-05-04 10:05 50.09887 14.26755 1203 ft 11 kts 81°
2026-05-04 10:05 50.09898 14.26872 1202 ft 12 kts 81°
2026-05-04 10:05 50.09913 14.27028 1201 ft 17 kts 82°
2026-05-04 10:06 50.09932 14.27241 1195 ft 21 kts 82°
2026-05-04 10:06 50.09952 14.27478 1190 ft 23 kts 82°
2026-05-04 10:06 50.09975 14.27726 1184 ft 24 kts 81°
2026-05-04 10:08 50.09958 14.28540 1209 ft 5 kts 102°
2026-05-04 10:08 50.09938 14.28559 1209 ft 3 kts 198°
2026-05-04 10:08 50.09924 14.28554 1209 ft 0 kts 192°